RAM430 GMAD-GMMN

Flight info

Callsign RAM430
Flight time N/A
Altitude 30000
Route MOGBA UH400 MAK UR722 FOBAC
Aircraft B738/M-SDE2E3FGHIRWXY/LB1

Departure

Time 2026-04-29 00:12
Airport Al Massira Airport (GMAD)

Arrival

Time N/A
Airport Mohammed V International Airport (GMMN)
Time Latitude Longitude Altitude Speed Heading
2026-04-28 23:54 30.32886 -9.41144 230 ft 0 kts
2026-04-29 00:01 30.32875 -9.41144 232 ft 3 kts
2026-04-29 00:02 30.32855 -9.41147 234 ft 3 kts 12°
2026-04-29 00:02 30.32836 -9.41153 232 ft 3 kts 24°
2026-04-29 00:02 30.32819 -9.41164 232 ft 3 kts 51°
2026-04-29 00:02 30.32812 -9.41178 233 ft 1 kts 90°
2026-04-29 00:03 30.32812 -9.41181 233 ft 1 kts 92°
2026-04-29 00:05 30.32812 -9.41179 233 ft 3 kts 92°
2026-04-29 00:05 30.32810 -9.41110 230 ft 11 kts 92°
2026-04-29 00:05 30.32808 -9.41016 230 ft 12 kts 91°
2026-04-29 00:05 30.32806 -9.40913 230 ft 13 kts 91°
2026-04-29 00:06 30.32804 -9.40801 230 ft 14 kts 91°
2026-04-29 00:06 30.32789 -9.40686 232 ft 15 kts 128°
2026-04-29 00:06 30.32690 -9.40665 230 ft 15 kts 182°
2026-04-29 00:06 30.32584 -9.40668 230 ft 15 kts 181°
2026-04-29 00:07 30.32481 -9.40670 230 ft 13 kts 176°
2026-04-29 00:07 30.32438 -9.40614 230 ft 11 kts 102°
2026-04-29 00:07 30.32435 -9.40524 230 ft 12 kts 91°
2026-04-29 00:07 30.32433 -9.40423 230 ft 13 kts 92°
2026-04-29 00:08 30.32429 -9.40310 230 ft 15 kts 92°
2026-04-29 00:08 30.32427 -9.40190 230 ft 15 kts 90°
2026-04-29 00:08 30.32424 -9.40064 230 ft 16 kts 92°
2026-04-29 00:08 30.32420 -9.39934 230 ft 16 kts 92°
2026-04-29 00:09 30.32418 -9.39805 230 ft 16 kts 91°
2026-04-29 00:09 30.32415 -9.39679 230 ft 16 kts 92°
2026-04-29 00:09 30.32412 -9.39569 230 ft 12 kts 91°
2026-04-29 00:09 30.32371 -9.39496 230 ft 12 kts 172°
2026-04-29 00:10 30.32298 -9.39497 230 ft 10 kts 181°
2026-04-29 00:10 30.32231 -9.39517 231 ft 10 kts 230°
2026-04-29 00:10 30.32225 -9.39561 230 ft 1 kts 272°
2026-04-29 00:10 30.32225 -9.39575 230 ft 3 kts 272°
2026-04-29 00:11 30.32226 -9.39605 230 ft 5 kts 271°
2026-04-29 00:11 30.32231 -9.39852 230 ft 65 kts 271°
2026-04-29 00:11 30.32278 -9.41884 383 ft 167 kts 269°
2026-04-29 00:12 30.32314 -9.43255 1022 ft 172 kts 270°
2026-04-29 00:12 30.32349 -9.44633 1824 ft 168 kts 271°
2026-04-29 00:12 30.32421 -9.46007 2453 ft 181 kts 272°
2026-04-29 00:12 30.32502 -9.47571 2695 ft 210 kts 276°
2026-04-29 00:13 30.32416 -9.49350 2907 ft 234 kts 251°
2026-04-29 00:13 30.31472 -9.50983 3158 ft 257 kts 227°
2026-04-29 00:13 30.30196 -9.52505 3771 ft 267 kts 227°
2026-04-29 00:13 30.28891 -9.54055 4616 ft 269 kts 226°
2026-04-29 00:14 30.27617 -9.55668 5375 ft 274 kts 237°
2026-04-29 00:14 30.26928 -9.57691 6138 ft 275 kts 257°
2026-04-29 00:14 30.26473 -9.59859 6890 ft 279 kts 257°
2026-04-29 00:14 30.26007 -9.62040 7716 ft 278 kts 257°
2026-04-29 00:15 30.25535 -9.64208 8566 ft 278 kts 257°
2026-04-29 00:15 30.25056 -9.66389 9349 ft 280 kts 257°
2026-04-29 00:15 30.24601 -9.68596 10117 ft 282 kts 264°
2026-04-29 00:15 30.24805 -9.70860 10406 ft 300 kts 293°
2026-04-29 00:16 30.26108 -9.72828 10580 ft 323 kts 322°
2026-04-29 00:16 30.28173 -9.74034 10821 ft 342 kts 336°
2026-04-29 00:16 30.30398 -9.75123 11320 ft 350 kts 334°
2026-04-29 00:16 30.32586 -9.76327 11977 ft 352 kts 332°
2026-04-29 00:17 30.34869 -9.77419 12655 ft 358 kts 345°
2026-04-29 00:17 30.37379 -9.77626 13339 ft 365 kts
2026-04-29 00:17 30.39925 -9.77407 13994 ft 369 kts
2026-04-29 00:17 30.42472 -9.77144 14602 ft 373 kts
2026-04-29 00:18 30.45064 -9.76881 15272 ft 375 kts
2026-04-29 00:18 30.47676 -9.76638 15955 ft 377 kts
2026-04-29 00:18 30.50307 -9.76410 16615 ft 380 kts
2026-04-29 00:18 30.52961 -9.76176 17251 ft 384 kts
2026-04-29 00:19 30.55394 -9.75448 17777 ft 394 kts 23°
2026-04-29 00:19 30.57688 -9.73654 18394 ft 402 kts 41°
2026-04-29 00:19 30.59484 -9.71122 18960 ft 407 kts 51°
2026-04-29 00:19 30.61147 -9.68438 19478 ft 411 kts 52°
2026-04-29 00:20 30.62810 -9.65710 19998 ft 415 kts 52°
2026-04-29 00:20 30.64474 -9.62998 20533 ft 418 kts 51°
2026-04-29 00:20 30.66179 -9.60251 21073 ft 420 kts 51°
2026-04-29 00:20 30.67901 -9.57498 21608 ft 423 kts 51°
2026-04-29 00:21 30.69649 -9.54718 22108 ft 426 kts 51°
2026-04-29 00:21 30.71409 -9.51919 22589 ft 429 kts 51°
2026-04-29 00:21 30.73157 -9.49141 23110 ft 432 kts 50°
2026-04-29 00:21 30.74963 -9.46331 23571 ft 435 kts 50°
2026-04-29 00:22 30.76798 -9.43520 23988 ft 437 kts 49°
2026-04-29 00:22 30.78647 -9.40698 24402 ft 440 kts 49°
2026-04-29 00:22 30.80517 -9.37843 24793 ft 442 kts 49°
2026-04-29 00:22 30.82362 -9.35017 25165 ft 445 kts 50°
2026-04-29 00:23 30.84248 -9.32120 25541 ft 448 kts 50°
2026-04-29 00:23 30.86138 -9.29212 25927 ft 451 kts 50°
2026-04-29 00:23 30.88035 -9.26286 26293 ft 454 kts 50°